This demonstration page uses our WeatherBlox Daily Observations layout. Learn more.

Left ArrowRight Arrow

Hourly Observations for May 1, 2021

Temp ( °F °C ) Dew Point ( °F °C ) Humidity (%) Winds ( mph kmh ) Pressure ( in mb ) Visibility ( mi km ) Precip ( " mm )
12:53 am 00:53 Clear with Light Rain 50 10 32 0 50 50 W 8 13 29.76 1008 10 16 0.00 0.00
1:53 am 01:53 Clear with Light Rain 49 9.4 32 0 52 52 NW 7 11 29.77 1008 10 16 0.00 0.00
2:53 am 02:53 Clear 48 8.9 33 0.6 56 56 NW 9 15 29.75 1008 10 16 0.00 0.00
3:53 am 03:53 Clear 45 7.2 33 0.6 63 63 NW 6 9 29.75 1007 10 16 0.00 0.00
4:53 am 04:53 Clear 48 8.9 33 0.6 56 56 WSW 12 19 29.75 1007 10 16 0.00 0.00
5:53 am 05:53 Clear 50 10 34 1.1 54 54 WSW 8 13 29.75 1008 10 16 0.00 0.00
6:53 am 06:53 Sunny 49 9.4 35 1.7 59 59 SW 8 13 29.76 1008 10 16 0.00 0.00
7:53 am 07:53 Sunny 56 13.3 36 2.2 47 47 SW 9 15 29.76 1008 10 16 0.00 0.00
8:53 am 08:53 Sunny 61 16.1 35 1.7 38 38 WSW 15 24 29.75 1008 10 16 0.00 0.00
9:53 am 09:53 Sunny 64 17.8 36 2.2 35 35 SW 15 24 29.74 1007 10 16 0.00 0.00
10:53 am 10:53 Sunny 68 20 34 1.1 28 28 W 10 17 29.70 1006 10 16 0.00 0.00
11:53 am 11:53 Mostly Cloudy 69 20.6 32 0 25 25 WSW 10 17 29.70 1006 10 16 0.00 0.00
12:53 pm 12:53 Sunny 73 22.8 33 0.6 23 23 WSW 18 30 29.67 1005 10 16 0.00 0.00
1:53 pm 13:53 Mostly Cloudy 72 22.2 30 -1.1 21 21 W 14 22 29.65 1004 10 16 0.00 0.00
2:53 pm 14:53 Cloudy 75 23.9 28 -2.2 18 18 WNW 16 26 29.63 1003 10 16 0.00 0.00
3:53 pm 15:53 Partly Cloudy 72 22.2 29 -1.7 20 20 WNW 12 19 29.62 1003 10 16 0.00 0.00
4:53 pm 16:53 Mostly Cloudy 72 22.2 30 -1.1 21 21 SW 14 22 29.60 1002 10 16 0.00 0.00
5:53 pm 17:53 Mostly Cloudy 70 21.1 30 -1.1 23 23 W 7 11 29.60 1002 10 16 0.00 0.00
6:53 pm 18:53 Mostly Cloudy 67 19.4 31 -0.6 26 26 NNW 17 28 29.60 1002 10 16 0.00 0.00
7:53 pm 19:53 Mostly Cloudy 65 18.3 32 0 29 29 N 10 17 29.61 1003 10 16 0.00 0.00
8:53 pm 20:53 Cloudy 62 16.7 32 0 32 32 N 22 35 29.64 1004 10 16 0.00 0.00
9:53 pm 21:53 Cloudy 59 15 34 1.1 39 39 NNE 16 26 29.66 1004 10 16 0.00 0.00
10:53 pm 22:53 Mostly Cloudy 56 13.3 36 2.2 47 47 E 13 20 29.68 1005 10 16 0.00 0.00
11:53 pm 23:53 Cloudy 54 12.2 36 2.2 51 51 NNW 10 17 29.72 1007 10 16 0.00 0.00

Powered by AerisWeather